Location: Dakoming
(43.5975°N, 104.0727°W)
Time: 02:47:08
(UTC+00:00)

ISS - Visible Passes

Search period start: 01 December 2023 00:00
Search period end: 11 December 2023 00:00
Orbit: 416 x 417 km, 51.6° (Epoch: 30 November)

Date Brightness Start Highest point End Pass type
(mag) Time Alt. Az. Time Alt. Az. Time Alt. Az.
01 Dec -2.5 00:14:31 10° NW 00:17:25 26° NNE 00:19:22 16° ENE visible
01 Dec -1.3 01:51:07 10° WNW 01:52:17 20° WNW 01:52:17 20° WNW visible
02 Dec -3.8 01:02:43 10° NW 01:06:03 61° NNE 01:06:08 61° NE visible
03 Dec -3.2 00:14:19 10° NW 00:17:32 41° NNE 00:20:07 14° E visible
03 Dec -1.4 01:51:10 10° WNW 01:53:03 25° W 01:53:03 25° W visible
04 Dec -3.1 01:02:31 10° WNW 01:05:49 54° SW 01:07:13 29° SSE visible
05 Dec -3.8 00:13:56 10° WNW 00:17:18 89° NE 00:20:39 10° ESE visible
05 Dec -0.7 01:52:05 10° WSW 01:53:34 12° SW 01:54:39 11° SSW visible
06 Dec -1.2 01:02:36 10° W 01:05:10 21° SW 01:07:45 10° S visible
07 Dec -2.0 00:13:35 10° WNW 00:16:41 34° SW 00:19:45 10° SSE visible
09 Dec -0.4 00:13:55 10° W 00:15:40 14° SW 00:17:25 10° SSW visible
